TimeEST,TemperatureF,Dew PointF,Humidity,Sea Level PressureIn,VisibilityMPH,Wind Direction,Wind SpeedMPH,Gust SpeedMPH,PrecipitationIn,Events,Conditions,WindDirDegrees,DateUTC
12:53 AM,16.0,7.0,68,30.13,10.0,WNW,10.4,-,N/A,,Clear,300,2012-11-27 05:53:00
1:53 AM,15.1,7.0,70,30.16,10.0,WNW,10.4,-,N/A,,Clear,290,2012-11-27 06:53:00
2:53 AM,12.9,7.0,77,30.17,10.0,West,8.1,-,N/A,,Clear,270,2012-11-27 07:53:00
3:53 AM,12.0,8.1,84,30.19,10.0,WSW,6.9,-,N/A,,Clear,250,2012-11-27 08:53:00
4:53 AM,10.9,8.1,88,30.20,10.0,West,5.8,-,N/A,,Clear,260,2012-11-27 09:53:00
5:53 AM,10.9,7.0,84,30.22,10.0,West,5.8,-,N/A,,Clear,270,2012-11-27 10:53:00
6:53 AM,10.9,7.0,84,30.24,10.0,West,8.1,-,N/A,,Clear,280,2012-11-27 11:53:00
7:53 AM,14.0,9.0,80,30.27,10.0,West,8.1,-,N/A,,Clear,270,2012-11-27 12:53:00
8:53 AM,17.1,10.0,74,30.27,10.0,West,4.6,-,N/A,,Clear,270,2012-11-27 13:53:00
9:53 AM,19.9,10.9,68,30.28,10.0,West,6.9,-,N/A,,Clear,260,2012-11-27 14:53:00
10:53 AM,21.9,10.0,60,30.26,10.0,West,4.6,-,N/A,,Clear,260,2012-11-27 15:53:00
11:13 AM,21.2,10.4,63,30.21,10.0,West,3.5,-,N/A,,Mostly Cloudy,280,2012-11-27 16:13:00
11:42 AM,23.0,8.6,54,30.21,10.0,WNW,5.8,-,N/A,,Scattered Clouds,300,2012-11-27 16:42:00
11:53 AM,23.0,9.0,55,30.26,10.0,Calm,Calm,-,N/A,,Clear,0,2012-11-27 16:53:00
12:53 PM,23.0,9.0,55,30.25,10.0,WSW,3.5,-,N/A,,Clear,250,2012-11-27 17:53:00
1:53 PM,24.1,8.1,51,30.25,10.0,SW,9.2,-,N/A,,Partly Cloudy,220,2012-11-27 18:53:00
2:53 PM,23.0,8.1,53,30.26,10.0,West,4.6,-,N/A,,Overcast,270,2012-11-27 19:53:00
3:53 PM,21.9,8.1,55,30.26,10.0,NW,3.5,-,N/A,,Partly Cloudy,320,2012-11-27 20:53:00
4:53 PM,21.0,8.1,57,30.28,10.0,Calm,Calm,-,N/A,,Mostly Cloudy,0,2012-11-27 21:53:00
5:53 PM,21.0,8.1,57,30.29,10.0,Calm,Calm,-,N/A,,Clear,0,2012-11-27 22:53:00
6:53 PM,21.0,9.0,60,30.29,10.0,East,3.5,-,N/A,,Overcast,100,2012-11-27 23:53:00
7:53 PM,19.9,8.1,60,30.29,10.0,East,3.5,-,N/A,,Overcast,80,2012-11-28 00:53:00
8:53 PM,18.0,9.0,68,30.29,10.0,East,4.6,-,N/A,,Overcast,100,2012-11-28 01:53:00
9:53 PM,18.0,9.0,68,30.29,10.0,Calm,Calm,-,N/A,,Clear,0,2012-11-28 02:53:00
10:53 PM,15.1,10.0,80,30.29,10.0,Calm,Calm,-,N/A,,Clear,0,2012-11-28 03:53:00
11:53 PM,12.9,10.0,88,30.28,10.0,NNW,3.5,-,N/A,,Clear,330,2012-11-28 04:53:00